| time (UTC) | temp F | wind direction | speed MPH | gust MPH | rain 1hr in | rain 24hr in | rain mn in | humidity % | barometer mb |
| 20260507083129 | 55 | 306 | 3.0 | 0.0 | 0.00 | 0.00 | 0.01 | 74 | 1013.1 |
| 20260507082627 | 55 | 24 | 3.0 | 0.0 | 0.00 | 0.00 | 0.01 | 74 | 1013.3 |
| 20260507081614 | 54 | 34 | 3.0 | 0.0 | 0.00 | 0.00 | 0.01 | 75 | 1013.5 |
| 20260507081118 | 54 | 319 | 2.0 | 0.0 | 0.00 | 0.00 | 0.01 | 76 | 1013.5 |
| 20260507080620 | 54 | 43 | 2.0 | 0.0 | 0.00 | 0.00 | 0.01 | 77 | 1012.6 |
| 20260507080123 | 54 | 57 | 1.0 | 0.0 | 0.00 | 0.00 | 0.01 | 77 | 1012.6 |
| 20260507075612 | 54 | 53 | 1.0 | 0.0 | 0.00 | 0.00 | 0.01 | 76 | 1012.6 |
| 20260507075113 | 54 | 30 | 1.0 | 0.0 | 0.00 | 0.00 | 0.01 | 76 | 1012.6 |
| 20260507074616 | 53 | 24 | 1.0 | 0.0 | 0.00 | 0.00 | 0.01 | 75 | 1012.5 |
| 20260507074119 | 53 | 57 | 1.0 | 0.0 | 0.00 | 0.00 | 0.01 | 75 | 1012.6 |
| 20260507073622 | 53 | 96 | 1.0 | 0.0 | 0.00 | 0.00 | 0.01 | 75 | 1012.6 |
| 20260507073124 | 54 | 126 | 2.0 | 0.0 | 0.00 | 0.00 | 0.01 | 74 | 1012.6 |
| 20260507072632 | 54 | 84 | 2.0 | 0.0 | 0.00 | 0.00 | 0.01 | 74 | 1012.5 |
| 20260507072118 | 54 | 43 | 2.0 | 0.0 | 0.00 | 0.00 | 0.01 | 74 | 1012.3 |
| 20260507071624 | 53 | 106 | 2.0 | 0.0 | 0.00 | 0.00 | 0.01 | 74 | 1012.2 |
| 20260507071122 | 53 | 132 | 2.0 | 0.0 | 0.00 | 0.00 | 0.01 | 73 | 1012.1 |
| 20260507070625 | 53 | 200 | 2.0 | 0.0 | 0.00 | 0.00 | 0.01 | 73 | 1012.1 |
| 20260507070129 | 53 | 176 | 1.0 | 0.0 | 0.00 | 0.00 | 0.01 | 73 | 1012.0 |
| 20260507065611 | 52 | 133 | 1.0 | 0.0 | 0.00 | 0.00 | 0.01 | 72 | 1011.9 |
| 20260507064621 | 52 | 188 | 0.0 | 0.0 | 0.00 | 0.00 | 0.01 | 70 | 1011.5 |
| 20260507064124 | 52 | 155 | 1.0 | 0.0 | 0.00 | 0.00 | 0.01 | 72 | 1011.5 |
| 20260507063627 | 52 | 161 | 3.0 | 0.0 | 0.00 | 0.00 | 0.01 | 70 | 1011.4 |
| 20260507063111 | 52 | 317 | 4.0 | 0.0 | 0.00 | 0.00 | 0.01 | 70 | 1011.2 |
| 20260507062120 | 51 | 324 | 3.0 | 0.0 | 0.00 | 0.00 | 0.01 | 71 | 1011.1 |
| 20260507061131 | 51 | 250 | 4.0 | 0.0 | 0.00 | 0.00 | 0.01 | 68 | 1011.1 |
| 20260507060617 | 51 | 254 | 3.0 | 0.0 | 0.00 | 0.00 | 0.01 | 70 | 1011.0 |
| 20260507060121 | 51 | 292 | 3.0 | 0.0 | 0.00 | 0.00 | 0.01 | 70 | 1010.8 |
| 20260507055622 | 52 | 321 | 2.0 | 0.0 | 0.00 | 0.00 | 0.01 | 70 | 1010.9 |
| 20260507055124 | 52 | 28 | 2.0 | 0.0 | 0.00 | 0.00 | 0.01 | 63 | 1010.8 |
| 20260507054626 | 52 | 36 | 2.0 | 0.0 | 0.00 | 0.00 | 0.01 | 63 | 1010.8 |
| 20260507054126 | 52 | 5 | 2.0 | 0.0 | 0.00 | 0.00 | 0.01 | 65 | 1010.8 |
| 20260507053630 | 52 | 21 | 3.0 | 0.0 | 0.00 | 0.00 | 0.01 | 66 | 1010.8 |
| 20260507053112 | 52 | 34 | 4.0 | 0.0 | 0.00 | 0.00 | 0.01 | 67 | 1010.8 |
| 20260507052617 | 52 | 11 | 4.0 | 0.0 | 0.00 | 0.00 | 0.01 | 71 | 1011.0 |
| 20260507052119 | 53 | 325 | 3.0 | 0.0 | 0.00 | 0.00 | 0.01 | 69 | 1011.1 |
| 20260507051126 | 53 | 319 | 1.0 | 0.0 | 0.00 | 0.00 | 0.00 | 64 | 1011.2 |
| 20260507050629 | 53 | 215 | 0.0 | 0.0 | 0.00 | 0.00 | 0.00 | 66 | 1011.3 |
| 20260507050111 | 54 | 161 | 0.0 | 0.0 | 0.00 | 0.00 | 0.00 | 65 | 1011.2 |
| 20260507045623 | 54 | 161 | 1.0 | 0.0 | 0.00 | 0.00 | 0.00 | 65 | 1011.1 |
| 20260507045130 | 54 | 256 | 2.0 | 0.0 | 0.00 | 0.00 | 0.00 | 62 | 1011.0 |
| 20260507044616 | 54 | 317 | 2.0 | 0.0 | 0.00 | 0.00 | 0.00 | 59 | 1011.0 |
| 20260507043123 | 54 | 23 | 1.0 | 0.0 | 0.00 | 0.00 | 0.00 | 62 | 1011.0 |
| 20260507042128 | 54 | 325 | 1.0 | 0.0 | 0.00 | 0.00 | 0.00 | 63 | 1010.7 |
| 20260507041611 | 54 | 336 | 0.0 | 0.0 | 0.00 | 0.00 | 0.00 | 64 | 1010.7 |
| 20260507041114 | 54 | 281 | 1.0 | 0.0 | 0.00 | 0.00 | 0.00 | 62 | 1010.7 |
| 20260507040617 | 54 | 295 | 3.0 | 0.0 | 0.00 | 0.00 | 0.00 | 61 | 1010.6 |
| 20260507035610 | 54 | 311 | 5.0 | 0.0 | 0.00 | 0.00 | 0.00 | 61 | 1010.7 |
| 20260507035114 | 54 | 329 | 5.0 | 0.0 | 0.00 | 0.00 | 0.00 | 62 | 1010.7 |
| 20260507034619 | 54 | 331 | 5.0 | 0.0 | 0.00 | 0.00 | 0.00 | 61 | 1010.7 |
| 20260507034127 | 54 | 340 | 4.0 | 0.0 | 0.00 | 0.00 | 0.00 | 61 | 1010.8 |
| 20260507033629 | 53 | 309 | 3.0 | 0.0 | 0.00 | 0.00 | 0.00 | 60 | 1010.8 |
| 20260507033132 | 53 | 313 | 4.0 | 0.0 | 0.00 | 0.00 | 0.00 | 59 | 1010.8 |
| 20260507032610 | 53 | 301 | 4.0 | 0.0 | 0.00 | 0.00 | 0.00 | 59 | 1010.8 |
| 20260507032112 | 53 | 315 | 4.0 | 0.0 | 0.00 | 0.00 | 0.00 | 59 | 1010.8 |
| 20260507031616 | 53 | 327 | 4.0 | 0.0 | 0.00 | 0.00 | 0.00 | 59 | 1010.8 |
| 20260507031119 | 53 | 323 | 4.0 | 0.0 | 0.00 | 0.00 | 0.00 | 59 | 1010.8 |
| 20260507030623 | 53 | 323 | 3.0 | 0.0 | 0.00 | 0.00 | 0.00 | 59 | 1010.8 |
| 20260507030124 | 53 | 327 | 3.0 | 0.0 | 0.00 | 0.00 | 0.00 | 59 | 1010.8 |
| 20260507025612 | 53 | 328 | 4.0 | 0.0 | 0.00 | 0.00 | 0.00 | 59 | 1010.8 |
| 20260507025116 | 52 | 306 | 3.0 | 0.0 | 0.00 | 0.00 | 0.00 | 60 | 1010.8 |
| 20260507024619 | 52 | 319 | 3.0 | 0.0 | 0.00 | 0.00 | 0.00 | 60 | 1010.8 |
| 20260507024122 | 52 | 328 | 3.0 | 0.0 | 0.00 | 0.00 | 0.00 | 60 | 1010.7 |
| 20260507023129 | 53 | 336 | 2.0 | 0.0 | 0.00 | 0.00 | 0.00 | 59 | 1010.7 |
| 20260507022617 | 53 | 313 | 2.0 | 0.0 | 0.00 | 0.00 | 0.00 | 59 | 1010.8 |
| 20260507022121 | 53 | 311 | 3.0 | 0.0 | 0.00 | 0.00 | 0.00 | 58 | 1010.7 |
| 20260507021624 | 53 | 336 | 3.0 | 0.0 | 0.00 | 0.00 | 0.00 | 58 | 1010.8 |
| 20260507020629 | 53 | 319 | 2.0 | 0.0 | 0.00 | 0.00 | 0.00 | 57 | 1010.8 |
| 20260507020111 | 54 | 304 | 2.0 | 0.0 | 0.00 | 0.00 | 0.00 | 57 | 1010.8 |
| 20260507014624 | 54 | 329 | 4.0 | 0.0 | 0.00 | 0.00 | 0.00 | 56 | 1010.8 |
| 20260507014128 | 54 | 335 | 4.0 | 0.0 | 0.00 | 0.00 | 0.00 | 56 | 1010.9 |
| 20260507013117 | 54 | 334 | 3.0 | 0.0 | 0.00 | 0.00 | 0.00 | 55 | 1011.0 |
| 20260507012620 | 54 | 315 | 4.0 | 0.0 | 0.00 | 0.00 | 0.00 | 56 | 1011.0 |
| 20260507012124 | 53 | 337 | 4.0 | 0.0 | 0.00 | 0.00 | 0.00 | 56 | 1011.0 |
| 20260507011627 | 54 | 329 | 3.0 | 0.0 | 0.00 | 0.00 | 0.00 | 56 | 1011.1 |
| 20260507011133 | 54 | 331 | 3.0 | 0.0 | 0.00 | 0.00 | 0.00 | 56 | 1011.1 |
| 20260507010617 | 54 | 341 | 4.0 | 0.0 | 0.00 | 0.00 | 0.00 | 55 | 1011.2 |
| 20260507010122 | 53 | 314 | 4.0 | 0.0 | 0.00 | 0.00 | 0.00 | 56 | 1011.2 |
| 20260507005621 | 53 | 325 | 3.0 | 0.0 | 0.00 | 0.00 | 0.00 | 57 | 1011.2 |
| 20260507005124 | 53 | 333 | 3.0 | 0.0 | 0.00 | 0.00 | 0.00 | 57 | 1011.2 |
| 20260507004611 | 53 | 331 | 4.0 | 0.0 | 0.00 | 0.00 | 0.00 | 57 | 1011.2 |
| 20260507004114 | 53 | 332 | 4.0 | 0.0 | 0.00 | 0.00 | 0.00 | 57 | 1011.3 |
| 20260507003617 | 53 | 321 | 4.0 | 0.0 | 0.00 | 0.00 | 0.00 | 57 | 1011.3 |
| 20260507003120 | 53 | 319 | 3.0 | 0.0 | 0.00 | 0.00 | 0.00 | 58 | 1011.3 |
| 20260507002621 | 53 | 311 | 3.0 | 0.0 | 0.00 | 0.00 | 0.00 | 58 | 1011.3 |
| 20260507002124 | 53 | 327 | 4.0 | 0.0 | 0.00 | 0.00 | 0.00 | 57 | 1011.4 |
| 20260507001110 | 53 | 324 | 3.0 | 0.0 | 0.00 | 0.00 | 0.00 | 57 | 1011.4 |
| 20260507000613 | 53 | 317 | 2.0 | 0.0 | 0.00 | 0.00 | 0.00 | 58 | 1011.5 |
| 20260507000116 | 53 | 300 | 2.0 | 0.0 | 0.00 | 0.00 | 0.00 | 58 | 1011.5 |
| 20260506235625 | 53 | 317 | 3.0 | 0.0 | 0.00 | 0.00 | 0.00 | 57 | 1011.5 |
| 20260506235129 | 53 | 326 | 3.0 | 0.0 | 0.00 | 0.00 | 0.00 | 57 | 1011.5 |
| 20260506234620 | 53 | 321 | 2.0 | 0.0 | 0.00 | 0.00 | 0.00 | 56 | 1011.5 |
| 20260506234118 | 54 | 346 | 2.0 | 0.0 | 0.00 | 0.00 | 0.00 | 56 | 1011.5 |
| 20260506233620 | 54 | 334 | 2.0 | 0.0 | 0.00 | 0.00 | 0.00 | 55 | 1011.5 |
| 20260506232627 | 54 | 331 | 3.0 | 0.0 | 0.00 | 0.00 | 0.00 | 56 | 1011.6 |
| 20260506232128 | 54 | 331 | 3.0 | 0.0 | 0.00 | 0.00 | 0.00 | 55 | 1011.6 |
| 20260506231629 | 54 | 323 | 3.0 | 0.0 | 0.00 | 0.00 | 0.00 | 56 | 1011.6 |
| 20260506231111 | 54 | 322 | 3.0 | 0.0 | 0.00 | 0.00 | 0.00 | 56 | 1011.6 |
| 20260506230614 | 54 | 327 | 2.0 | 0.0 | 0.00 | 0.00 | 0.00 | 56 | 1011.6 |
| 20260506230116 | 54 | 322 | 2.0 | 0.0 | 0.00 | 0.00 | 0.00 | 56 | 1011.7 |
| 20260506225125 | 54 | 313 | 3.0 | 0.0 | 0.00 | 0.00 | 0.00 | 57 | 1011.6 |
| 20260506224611 | 54 | 324 | 3.0 | 0.0 | 0.00 | 0.00 | 0.00 | 55 | 1011.6 |
| 20260506224120 | 54 | 319 | 4.0 | 0.0 | 0.00 | 0.00 | 0.00 | 55 | 1011.5 |
| 20260506223132 | 54 | 328 | 4.0 | 0.0 | 0.00 | 0.00 | 0.00 | 55 | 1011.6 |
| 20260506222611 | 54 | 323 | 3.0 | 0.0 | 0.00 | 0.00 | 0.00 | 56 | 1011.6 |
| 20260506222114 | 54 | 322 | 3.0 | 0.0 | 0.00 | 0.00 | 0.00 | 55 | 1011.6 |
| 20260506221617 | 54 | 319 | 3.0 | 0.0 | 0.00 | 0.00 | 0.00 | 56 | 1011.6 |
| 20260506221119 | 54 | 290 | 3.0 | 0.0 | 0.00 | 0.00 | 0.00 | 55 | 1011.6 |
| 20260506220623 | 55 | 355 | 3.0 | 0.0 | 0.00 | 0.00 | 0.00 | 55 | 1011.6 |
| 20260506220123 | 55 | 345 | 3.0 | 0.0 | 0.00 | 0.00 | 0.00 | 54 | 1011.6 |
| 20260506215629 | 55 | 324 | 3.0 | 0.0 | 0.00 | 0.00 | 0.00 | 53 | 1011.6 |
| 20260506215129 | 55 | 355 | 3.0 | 0.0 | 0.00 | 0.00 | 0.00 | 52 | 1011.6 |
| 20260506214617 | 55 | 337 | 3.0 | 0.0 | 0.00 | 0.00 | 0.00 | 52 | 1011.6 |
| 20260506214119 | 55 | 312 | 3.0 | 0.0 | 0.00 | 0.00 | 0.00 | 52 | 1011.7 |
| 20260506213622 | 55 | 315 | 3.0 | 0.0 | 0.00 | 0.00 | 0.00 | 52 | 1011.6 |
| 20260506213124 | 55 | 342 | 3.0 | 0.0 | 0.00 | 0.00 | 0.00 | 52 | 1011.7 |
| 20260506212633 | 56 | 336 | 4.0 | 0.0 | 0.00 | 0.00 | 0.00 | 53 | 1011.7 |
| 20260506212119 | 56 | 334 | 4.0 | 0.0 | 0.00 | 0.00 | 0.00 | 52 | 1011.7 |
| 20260506211620 | 56 | 336 | 5.0 | 0.0 | 0.00 | 0.00 | 0.00 | 52 | 1011.7 |
| 20260506211117 | 56 | 321 | 4.0 | 0.0 | 0.00 | 0.00 | 0.00 | 52 | 1011.7 |
| 20260506210621 | 56 | 331 | 4.0 | 0.0 | 0.00 | 0.00 | 0.00 | 53 | 1011.7 |
| 20260506205628 | 56 | 349 | 3.0 | 0.0 | 0.00 | 0.00 | 0.00 | 53 | 1011.7 |
| 20260506205112 | 56 | 319 | 3.0 | 0.0 | 0.00 | 0.00 | 0.00 | 53 | 1011.7 |
| 20260506204620 | 56 | 349 | 3.0 | 0.0 | 0.00 | 0.00 | 0.00 | 53 | 1011.6 |
| 20260506204123 | 56 | 344 | 3.0 | 0.0 | 0.00 | 0.00 | 0.00 | 54 | 1011.6 |
| 20260506203627 | 56 | 348 | 4.0 | 0.0 | 0.00 | 0.00 | 0.00 | 53 | 1011.6 |
| 20260506203128 | 56 | 5 | 4.0 | 0.0 | 0.00 | 0.00 | 0.00 | 53 | 1011.5 |
| 20260506202611 | 56 | 333 | 4.0 | 0.0 | 0.00 | 0.00 | 0.00 | 53 | 1011.6 |
| 20260506202111 | 56 | 342 | 4.0 | 0.0 | 0.00 | 0.00 | 0.00 | 53 | 1011.5 |
| 20260506201615 | 56 | 322 | 4.0 | 0.0 | 0.00 | 0.00 | 0.00 | 54 | 1011.5 |
| 20260506201124 | 56 | 326 | 4.0 | 0.0 | 0.00 | 0.00 | 0.00 | 54 | 1011.5 |
| 20260506195618 | 56 | 336 | 2.0 | 0.0 | 0.00 | 0.00 | 0.00 | 54 | 1011.5 |
| 20260506195122 | 56 | 323 | 2.0 | 0.0 | 0.00 | 0.00 | 0.00 | 53 | 1011.5 |
| 20260506194114 | 57 | 304 | 2.0 | 0.0 | 0.00 | 0.00 | 0.00 | 53 | 1011.5 |
| 20260506193619 | 57 | 320 | 2.0 | 0.0 | 0.00 | 0.00 | 0.00 | 52 | 1011.5 |
| 20260506193121 | 57 | 327 | 3.0 | 0.0 | 0.00 | 0.00 | 0.00 | 52 | 1011.4 |
| 20260506192626 | 57 | 333 | 3.0 | 0.0 | 0.00 | 0.00 | 0.00 | 52 | 1011.4 |
| 20260506192126 | 58 | 298 | 4.0 | 0.0 | 0.00 | 0.00 | 0.00 | 51 | 1011.4 |
| 20260506191628 | 58 | 324 | 5.0 | 0.0 | 0.00 | 0.00 | 0.00 | 50 | 1011.3 |
| 20260506191112 | 58 | 321 | 5.0 | 0.0 | 0.00 | 0.00 | 0.00 | 51 | 1011.4 |
| 20260506190616 | 58 | 299 | 4.0 | 0.0 | 0.00 | 0.00 | 0.00 | 51 | 1011.4 |
| 20260506190119 | 59 | 334 | 4.0 | 0.0 | 0.00 | 0.00 | 0.00 | 50 | 1011.4 |
| 20260506185627 | 59 | 327 | 4.0 | 0.0 | 0.00 | 0.00 | 0.00 | 49 | 1011.4 |
| 20260506184621 | 60 | 321 | 3.0 | 0.0 | 0.00 | 0.00 | 0.00 | 48 | 1011.4 |
| 20260506183626 | 62 | 321 | 2.0 | 0.0 | 0.00 | 0.00 | 0.00 | 44 | 1011.4 |
| 20260506183127 | 63 | 326 | 1.0 | 0.0 | 0.00 | 0.00 | 0.00 | 44 | 1011.4 |
| 20260506182611 | 64 | 18 | 1.0 | 0.0 | 0.00 | 0.00 | 0.00 | 41 | 1011.3 |
| 20260506182114 | 64 | 27 | 1.0 | 0.0 | 0.00 | 0.00 | 0.00 | 39 | 1011.3 |
| 20260506181615 | 65 | 80 | 1.0 | 0.0 | 0.00 | 0.00 | 0.00 | 38 | 1011.3 |
| 20260506181115 | 65 | 57 | 1.0 | 0.0 | 0.00 | 0.00 | 0.00 | 35 | 1011.3 |
| 20260506180122 | 67 | 169 | 0.0 | 0.0 | 0.00 | 0.00 | 0.00 | 35 | 1011.4 |
| 20260506175127 | 68 | 69 | 1.0 | 0.0 | 0.00 | 0.00 | 0.00 | 33 | 1011.5 |
| 20260506174630 | 68 | 348 | 1.0 | 0.0 | 0.00 | 0.00 | 0.00 | 34 | 1011.5 |
| 20260506174120 | 68 | 187 | 1.0 | 0.0 | 0.00 | 0.00 | 0.00 | 33 | 1011.5 |
| 20260506173623 | 67 | 43 | 1.0 | 0.0 | 0.00 | 0.00 | 0.00 | 34 | 1011.6 |
| 20260506173128 | 67 | 355 | 1.0 | 0.0 | 0.00 | 0.00 | 0.00 | 34 | 1011.7 |
| 20260506172112 | 67 | 101 | 1.0 | 0.0 | 0.00 | 0.00 | 0.00 | 33 | 1011.6 |
| 20260506171615 | 67 | 134 | 2.0 | 0.0 | 0.00 | 0.00 | 0.00 | 33 | 1011.7 |
| 20260506171118 | 67 | 128 | 2.0 | 0.0 | 0.00 | 0.00 | 0.00 | 32 | 1011.8 |
| 20260506170621 | 67 | 134 | 3.0 | 0.0 | 0.00 | 0.00 | 0.00 | 33 | 1011.8 |
| 20260506165612 | 68 | 144 | 1.0 | 0.0 | 0.00 | 0.00 | 0.00 | 32 | 1011.7 |
| 20260506165116 | 69 | 138 | 1.0 | 0.0 | 0.00 | 0.00 | 0.00 | 32 | 1011.7 |
| 20260506164124 | 69 | 129 | 1.0 | 0.0 | 0.00 | 0.00 | 0.00 | 32 | 1011.8 |
| 20260506163611 | 69 | 136 | 2.0 | 0.0 | 0.00 | 0.00 | 0.00 | 31 | 1011.9 |
| 20260506162130 | 69 | 121 | 2.0 | 0.0 | 0.00 | 0.00 | 0.00 | 32 | 1011.8 |
| 20260506161633 | 69 | 115 | 2.0 | 0.0 | 0.00 | 0.00 | 0.00 | 32 | 1011.9 |
| 20260506161112 | 69 | 105 | 2.0 | 0.0 | 0.00 | 0.00 | 0.00 | 32 | 1011.9 |
| 20260506160121 | 69 | 182 | 1.0 | 0.0 | 0.00 | 0.00 | 0.00 | 31 | 1012.0 |
| 20260506155625 | 68 | 21 | 2.0 | 0.0 | 0.00 | 0.00 | 0.00 | 31 | 1012.0 |
| 20260506155126 | 68 | 28 | 2.0 | 0.0 | 0.00 | 0.00 | 0.00 | 30 | 1012.2 |
| 20260506154116 | 67 | 111 | 3.0 | 0.0 | 0.00 | 0.00 | 0.00 | 33 | 1012.1 |
| 20260506153618 | 67 | 136 | 2.0 | 0.0 | 0.00 | 0.00 | 0.00 | 32 | 1012.2 |
| 20260506153126 | 66 | 198 | 2.0 | 0.0 | 0.00 | 0.00 | 0.00 | 30 | 1012.1 |
| 20260506152629 | 66 | 138 | 2.0 | 0.0 | 0.00 | 0.00 | 0.00 | 31 | 1012.3 |
| 20260506151615 | 67 | 105 | 4.0 | 0.0 | 0.00 | 0.00 | 0.00 | 33 | 1012.4 |
| 20260506151123 | 66 | 144 | 4.0 | 0.0 | 0.00 | 0.00 | 0.00 | 34 | 1012.4 |
| 20260506150627 | 67 | 148 | 3.0 | 0.0 | 0.00 | 0.00 | 0.00 | 33 | 1012.4 |
| 20260506150132 | 67 | 113 | 3.0 | 0.0 | 0.00 | 0.00 | 0.00 | 35 | 1012.5 |
| 20260506144621 | 65 | 26 | 1.0 | 0.0 | 0.00 | 0.00 | 0.00 | 36 | 1012.7 |
| 20260506144122 | 64 | 329 | 3.0 | 0.0 | 0.00 | 0.00 | 0.00 | 39 | 1012.8 |
| 20260506143624 | 64 | 126 | 3.0 | 0.0 | 0.00 | 0.00 | 0.00 | 39 | 1013.0 |
| 20260506142628 | 66 | 183 | 5.0 | 0.0 | 0.00 | 0.00 | 0.00 | 37 | 1013.0 |
| 20260506142112 | 66 | 100 | 6.0 | 0.0 | 0.00 | 0.00 | 0.00 | 38 | 1013.0 |
| 20260506141614 | 66 | 130 | 5.0 | 0.0 | 0.00 | 0.00 | 0.00 | 37 | 1013.1 |
| 20260506141115 | 66 | 208 | 5.0 | 0.0 | 0.00 | 0.00 | 0.00 | 42 | 1013.1 |
| 20260506140620 | 65 | 152 | 5.0 | 0.0 | 0.00 | 0.00 | 0.00 | 39 | 1013.2 |
| 20260506140123 | 66 | 163 | 3.0 | 0.0 | 0.00 | 0.00 | 0.00 | 40 | 1013.3 |
| 20260506135119 | 65 | 51 | 3.0 | 0.0 | 0.00 | 0.00 | 0.00 | 44 | 1013.3 |
| 20260506134622 | 64 | 213 | 5.0 | 0.0 | 0.00 | 0.00 | 0.00 | 40 | 1013.5 |
| 20260506134122 | 65 | 163 | 4.0 | 0.0 | 0.00 | 0.00 | 0.00 | 41 | 1013.6 |
| 20260506133126 | 65 | 110 | 4.0 | 0.0 | 0.00 | 0.00 | 0.00 | 40 | 1013.6 |
| 20260506132115 | 65 | 138 | 4.0 | 0.0 | 0.00 | 0.00 | 0.00 | 43 | 1013.7 |
| 20260506131619 | 64 | 155 | 4.0 | 0.0 | 0.00 | 0.00 | 0.00 | 45 | 1013.7 |
| 20260506131122 | 64 | 115 | 3.0 | 0.0 | 0.00 | 0.00 | 0.00 | 43 | 1013.8 |
| 20260506130628 | 65 | 136 | 3.0 | 0.0 | 0.00 | 0.00 | 0.00 | 40 | 1013.9 |
| 20260506130129 | 66 | 30 | 3.0 | 0.0 | 0.00 | 0.00 | 0.00 | 39 | 1013.9 |
| 20260506125117 | 65 | 263 | 2.0 | 0.0 | 0.00 | 0.00 | 0.00 | 43 | 1013.9 |
| 20260506124620 | 64 | 182 | 3.0 | 0.0 | 0.00 | 0.00 | 0.00 | 43 | 1014.1 |
| 20260506124128 | 64 | 28 | 3.0 | 0.0 | 0.00 | 0.00 | 0.00 | 42 | 1014.2 |
| 20260506123119 | 65 | 323 | 3.0 | 0.0 | 0.00 | 0.00 | 0.00 | 40 | 1014.2 |
| 20260506122124 | 65 | 200 | 3.0 | 0.0 | 0.00 | 0.00 | 0.00 | 41 | 1014.4 |
| 20260506121627 | 65 | 145 | 4.0 | 0.0 | 0.00 | 0.00 | 0.00 | 40 | 1014.4 |
| 20260506121128 | 65 | 141 | 4.0 | 0.0 | 0.00 | 0.00 | 0.00 | 40 | 1014.4 |
| 20260506120611 | 66 | 141 | 3.0 | 0.0 | 0.00 | 0.00 | 0.00 | 41 | 1014.4 |
| 20260506120118 | 65 | 43 | 3.0 | 0.0 | 0.00 | 0.00 | 0.00 | 42 | 1014.6 |
| 20260506115620 | 64 | 139 | 4.0 | 0.0 | 0.00 | 0.00 | 0.00 | 44 | 1014.6 |
| 20260506114628 | 65 | 132 | 3.0 | 0.0 | 0.00 | 0.00 | 0.00 | 43 | 1014.7 |
| 20260506114127 | 64 | 87 | 2.0 | 0.0 | 0.00 | 0.00 | 0.00 | 44 | 1014.8 |
| 20260506113612 | 64 | 223 | 3.0 | 0.0 | 0.00 | 0.00 | 0.00 | 42 | 1014.9 |
| 20260506113114 | 63 | 184 | 3.0 | 0.0 | 0.00 | 0.00 | 0.00 | 44 | 1014.9 |
| 20260506112623 | 63 | 98 | 3.0 | 0.0 | 0.00 | 0.00 | 0.00 | 47 | 1015.0 |
| 20260506111116 | 63 | 77 | 3.0 | 0.0 | 0.00 | 0.00 | 0.00 | 47 | 1015.1 |
| 20260506110619 | 62 | 124 | 3.0 | 0.0 | 0.00 | 0.00 | 0.00 | 47 | 1015.1 |
| 20260506110122 | 61 | 118 | 4.0 | 0.0 | 0.00 | 0.00 | 0.00 | 50 | 1015.2 |
| 20260506105113 | 61 | 183 | 4.0 | 0.0 | 0.00 | 0.00 | 0.00 | 46 | 1015.1 |
| 20260506104122 | 62 | 42 | 3.0 | 0.0 | 0.00 | 0.00 | 0.00 | 49 | 1015.2 |
| 20260506103130 | 61 | 315 | 2.0 | 0.0 | 0.00 | 0.00 | 0.00 | 45 | 1015.2 |
| 20260506102613 | 61 | 57 | 4.0 | 0.0 | 0.00 | 0.00 | 0.00 | 47 | 1015.3 |
| 20260506102118 | 61 | 55 | 3.0 | 0.0 | 0.00 | 0.00 | 0.00 | 48 | 1015.3 |
| 20260506101619 | 61 | 108 | 3.0 | 0.0 | 0.00 | 0.00 | 0.00 | 48 | 1015.3 |
| 20260506101128 | 61 | 100 | 2.0 | 0.0 | 0.00 | 0.00 | 0.00 | 49 | 1015.3 |
| 20260506100634 | 60 | 92 | 2.0 | 0.0 | 0.00 | 0.00 | 0.00 | 51 | 1015.3 |
| 20260506100118 | 60 | 107 | 4.0 | 0.0 | 0.00 | 0.00 | 0.00 | 52 | 1015.4 |
| 20260506095616 | 60 | 118 | 3.0 | 0.0 | 0.00 | 0.00 | 0.00 | 53 | 1015.3 |
| 20260506095125 | 60 | 125 | 3.0 | 0.0 | 0.00 | 0.00 | 0.00 | 51 | 1015.2 |
| 20260506094628 | 59 | 118 | 4.0 | 0.0 | 0.00 | 0.00 | 0.00 | 53 | 1015.1 |
| 20260506094128 | 59 | 120 | 3.0 | 0.0 | 0.00 | 0.00 | 0.00 | 54 | 1015.1 |
| 20260506093611 | 58 | 32 | 4.0 | 0.0 | 0.00 | 0.00 | 0.00 | 53 | 1015.1 |
| 20260506092619 | 58 | 129 | 3.0 | 0.0 | 0.00 | 0.00 | 0.00 | 53 | 1015.1 |
| 20260506092123 | 58 | 118 | 2.0 | 0.0 | 0.00 | 0.00 | 0.00 | 55 | 1015.1 |
| 20260506091626 | 58 | 138 | 3.0 | 0.0 | 0.00 | 0.00 | 0.00 | 54 | 1015.2 |
| 20260506091127 | 58 | 78 | 3.0 | 0.0 | 0.00 | 0.00 | 0.00 | 57 | 1015.2 |
| 20260506090630 | 57 | 147 | 4.0 | 0.0 | 0.00 | 0.00 | 0.00 | 58 | 1015.1 |
| 20260506090113 | 57 | 105 | 3.0 | 0.0 | 0.00 | 0.00 | 0.00 | 55 | 1015.1 |
| 20260506085621 | 57 | 139 | 2.0 | 0.0 | 0.00 | 0.00 | 0.00 | 59 | 1015.2 |
| 20260506085129 | 57 | 119 | 2.0 | 0.0 | 0.00 | 0.00 | 0.00 | 59 | 1015.2 |
| 20260506084632 | 56 | 71 | 2.0 | 0.0 | 0.00 | 0.00 | 0.00 | 59 | 1015.2 |
| 20260506084129 | 56 | 5 | 3.0 | 0.0 | 0.00 | 0.00 | 0.00 | 59 | 1015.2 |
| 20260506083613 | 56 | 59 | 3.0 | 0.0 | 0.00 | 0.00 | 0.00 | 61 | 1015.2 |